This is the latest recevied weather packets stored in our database for station/object GOLDWX. If no packets are shown the sender has not sent any weather packets the latest 10 day(s).
| Time | Temp. | Humidity | Pressure | Rain* | Wind** | Luminosity | Snow |
|---|---|---|---|---|---|---|---|
| 1777806299 | 10° C | 35% | 1013.6 hPa | 0 mm | - | - | - |
| 1777805999 | 10° C | 35% | 1013.7 hPa | 0 mm | - | - | - |
| 1777805397 | 10° C | 37% | 1013.7 hPa | 0 mm | - | - | - |
| 1777805096 | 9.44° C | 37% | 1013.7 hPa | 0 mm | - | - | - |
| 1777804494 | 10° C | 37% | 1013.7 hPa | 0 mm | - | - | - |
| 1777804194 | 10° C | 36% | 1013.7 hPa | 0 mm | - | - | - |
| 1777803592 | 10.56° C | 35% | 1013.8 hPa | 0 mm | - | - | - |
| 1777803291 | 10.56° C | 35% | 1013.7 hPa | 0 mm | - | - | - |
| 1777802690 | 10.56° C | 33% | 1013.6 hPa | 0 mm | - | - | - |
| 1777802389 | 10.56° C | 35% | 1013.6 hPa | 0 mm | - | - | - |
| 1777801787 | 11.11° C | 33% | 1013.5 hPa | 0 mm | - | - | - |
| 1777801487 | 11.11° C | 32% | 1013.7 hPa | 0 mm | - | - | - |
| 1777800884 | 11.11° C | 32% | 1013.7 hPa | 0 mm | - | - | - |
| 1777800584 | 11.11° C | 31% | 1013.8 hPa | 0 mm | - | - | - |
| 1777799982 | 11.67° C | 31% | 1013.8 hPa | 0 mm | - | - | - |
| 1777799681 | 11.67° C | 31% | 1013.9 hPa | 0 mm | - | - | - |
| 1777799079 | 12.22° C | 30% | 1013.9 hPa | 0 mm | - | - | - |
| 1777798779 | 12.22° C | 29% | 1013.9 hPa | 0 mm | - | - | - |
| 1777798177 | 12.22° C | 29% | 1014 hPa | 0 mm | - | - | - |
| 1777797876 | 12.22° C | 28% | 1014 hPa | 0 mm | - | - | - |
| 1777797274 | 12.22° C | 29% | 1014 hPa | 0 mm | - | - | - |
| 1777796372 | 11.67° C | 29% | 1014.2 hPa | 0 mm | - | - | - |
| 1777796071 | 11.67° C | 30% | 1014.2 hPa | 0 mm | - | - | - |
| 1777795469 | 11.67° C | 30% | 1014.2 hPa | 0 mm | - | - | - |
| 1777795169 | 11.67° C | 31% | 1014.1 hPa | 0 mm | - | - | - |
* Rain since midnight (hover to see other rain measurements)
** Current wind speed in m/s (hover to see current wind gust speed)